This demonstration page uses our WeatherBlox Daily Observations layout. Learn more.

Left ArrowRight Arrow

Hourly Observations for February 18, 2022

Temp ( °F °C ) Dew Point ( °F °C ) Humidity (%) Winds ( mph kmh ) Pressure ( in mb ) Visibility ( mi km ) Precip ( " mm )
12:53 am 00:53 Cloudy 35 1.7 27 -2.8 72 72 WSW 12 19 29.92 1013 10 16 0.00 0.00
1:53 am 01:53 Cloudy 34 1.1 27 -2.8 76 76 SW 14 22 29.93 1014 10 16 0.00 0.00
2:53 am 02:53 Cloudy 34 1.1 27 -2.8 76 76 WSW 8 13 29.97 1015 10 16 0.00 0.00
3:53 am 03:53 Cloudy 34 1.1 27 -2.8 76 76 SW 8 13 29.96 1015 10 16 0.00 0.00
4:53 am 04:53 Cloudy 32 0 27 -2.8 82 82 WSW 7 11 30.01 1016 10 16 0.00 0.00
5:53 am 05:53 Cloudy 33 0.6 27 -2.8 78 78 NW 5 7 30.06 1018 10 16 0.00 0.00
6:41 am 06:41 Cloudy 33 0.6 28 -2.2 82 82 NNW 3 6 30.13 1020 10 16 0.00 0.00
6:53 am 06:53 Cloudy 34 1.1 28 -2.2 79 79 N 6 9 30.11 1020 10 16 0.00 0.00
7:43 am 07:43 Cloudy with Light Snow 33 0.6 28 -2.2 82 82 N 8 13 30.18 1022 6 10 0.01 0.25
7:53 am 07:53 Windy with Snow Likely 30 -1.1 26 -3.3 85 85 NNE 21 33 30.18 1022 3 4 0.01 0.25
8:19 am 08:19 Cloudy with Light Snow 28 -2.2 24 -4.4 85 85 NE 10 17 30.26 1025 4 6 0.02 0.51
8:39 am 08:39 Cloudy 27 -2.8 22 -5.6 81 81 NNE 13 20 30.29 1026 9 14 0.02 0.51
8:53 am 08:53 Cloudy 27 -2.8 21 -6.1 78 78 N 18 30 30.25 1024 7 11 0.02 0.51
9:53 am 09:53 Cloudy 21 -6.1 15 -9.4 78 78 NE 16 26 30.32 1027 10 16 0.00 0.00
10:53 am 10:53 Cloudy 21 -6.1 13 -10.6 71 71 NNE 9 15 30.35 1028 10 16 0.00 0.00
11:53 am 11:53 Cloudy 21 -6.1 13 -10.6 71 71 ENE 8 13 30.38 1029 9 14 0.00 0.00
12:53 pm 12:53 Cloudy 21 -6.1 13 -10.6 71 71 E 9 15 30.37 1028 10 16 0.00 0.00
1:53 pm 13:53 Cloudy 21 -6.1 12 -11.1 68 68 E 8 13 30.35 1028 10 16 0.00 0.00
2:53 pm 14:53 Cloudy 21 -6.1 13 -10.6 71 71 E 7 11 30.35 1028 10 16 0.00 0.00
3:53 pm 15:53 Cloudy 21 -6.1 13 -10.6 71 71 E 7 11 30.33 1027 10 16 0.00 0.00
4:53 pm 16:53 Cloudy 21 -6.1 13 -10.6 71 71 E 8 13 30.29 1026 10 16 0.00 0.00
5:53 pm 17:53 Cloudy 20 -6.7 13 -10.6 74 74 E 14 22 30.28 1025 10 16 0.00 0.00
6:53 pm 18:53 Cloudy 20 -6.7 14 -10 78 78 E 10 17 30.26 1025 10 16 0.00 0.00
7:53 pm 19:53 Partly Cloudy 18 -7.8 13 -10.6 81 81 E 8 13 30.23 1024 10 16 0.00 0.00
8:53 pm 20:53 Clear 17 -8.3 13 -10.6 84 84 E 6 9 30.19 1023 10 16 0.00 0.00
9:53 pm 21:53 Clear 16 -8.9 13 -10.6 88 88 ENE 7 11 30.17 1022 10 16 0.00 0.00
10:53 pm 22:53 Clear 17 -8.3 14 -10 88 88 ENE 5 7 30.12 1020 10 16 0.00 0.00
11:53 pm 23:53 Clear 17 -8.3 14 -10 88 88 Calm 30.07 1018 10 16 0.00 0.00

Powered by AerisWeather